Content
SEND FEEDBACK

Daily
Averages
Monthly
Summary
Palau

KOROR - TERMINAL PORT, PALAU


Home > Oceania > Palau
Elevation: 10 feet     Latitude: 07 20N     Longitude: 134 27E

WEATHER
 
SELECT A DAY
Number of Records: 162,231;   Date Range: 7/1/96 - 7/7/14
 
SHARE

PRINT THIS DATA

[ ← Previous Day ]
WEATHER ALMANAC - FEBRUARY 5, 2013
[ Next Day → ]
[ °C ]   °F
Weather ElementAverageHighLow
Temperature81 °F88 °F (4:00 pm)77 °F (1:57 am)
Dewpoint75.2 °F78 °F (10:00 am)73 °F (4:00 pm)
Humidity82.4 %94 % (2:55 am)52 % (4:00 pm)
Barometer29.84 in29.91 in (10:00 am)29.78 in (3:51 pm)
Wind Speed9.3 mph17.3 mph (11:56 am)
Wind Gust27.6 mph (3:51 pm)
Weather ElementAverage
Visibility14.1 mi
Wind DirectionENE (51.5 °)

Weather ElementTotal
Precipitation---
Cooling Degree Days17.5 (Base 65)
Growing Degree Days32.5 (Base 50)
Averaged from 27 records on February 5, 2013
WEATHER CONDITIONS BREAKOUT
WIND DIRECTION BREAKOUT
WEATHER BY HOUR - FEBRUARY 5, 2013
[ °C ]   °F
Local TimeTemperatureDewpointHumidityBarometerVisibilityWind DirectionWind SpeedGust SpeedPrecipitationEventsConditions
1:57 AM77.0 °F73.4 °F89 %29.86 in14.0 miNE (50°)11.5 mph18.4 mphOvercast
2:55 AM77.0 °F75.2 °F94 %29.85 in14.0 miNNE (20°)5.8 mphOvercast
3:58 AM77.0 °F75.2 °F94 %29.83 in14.0 miNorth (10°)5.8 mphOvercast
4:00 AM78.0 °F75.0 °F88 %29.87 in14.0 miCalmPartly Cloudy
4:54 AM77.0 °F75.2 °F94 %29.83 in14.0 miENE (60°)5.8 mphOvercast
5:52 AM77.0 °F75.2 °F94 %29.84 in10.0 miNorth (10°)6.9 mphRainLight Rain Showers
6:53 AM77.0 °F75.2 °F94 %29.84 in10.0 miNNE (30°)6.9 mphRainLight Rain Showers
7:50 AM77.0 °F75.2 °F94 %29.85 in14.0 miNNE (30°)4.6 mphOvercast
8:56 AM78.8 °F77.0 °F94 %29.86 in14.0 miENE (60°)9.2 mphOvercast
9:58 AM80.6 °F77.0 °F89 %29.87 in14.0 miENE (60°)10.4 mph18.4 mphOvercast
10:00 AM81.0 °F78.0 °F89 %29.91 in12.0 miEast (90°)5.8 mphRainLight Rain Showers
10:58 AM82.4 °F77.0 °F84 %29.87 in14.0 miENE (60°)10.4 mph21.9 mphOvercast
11:56 AM84.2 °F77.0 °F79 %29.86 in14.0 miENE (60°)17.3 mph24.2 mphMostly Cloudy
12:51 PM86.0 °F77.0 °F74 %29.84 in15.0 miENE (60°)16.1 mph24.2 mphMostly Cloudy
1:59 PM86.0 °F75.2 °F70 %29.82 in15.0 miNE (50°)12.7 mph23.0 mphMostly Cloudy
2:51 PM86.0 °F77.0 °F74 %29.80 in15.0 miENE (70°)13.8 mph23.0 mphMostly Cloudy
3:51 PM86.0 °F75.2 °F70 %29.78 in15.0 miENE (70°)16.1 mph27.6 mphMostly Cloudy
4:00 PM88.0 °F73.0 °F52 %29.81 in15.0 miEast (90°)17.3 mphPartly Cloudy
4:50 PM86.0 °F77.0 °F74 %29.78 in15.0 miNE (50°)12.7 mph17.3 mphMostly Cloudy
5:58 PM82.4 °F75.2 °F79 %29.80 in15.0 miENE (60°)10.4 mph17.3 mphMostly Cloudy
6:59 PM80.6 °F75.2 °F84 %29.82 in15.0 miNE (50°)9.2 mphMostly Cloudy
7:56 PM80.6 °F73.4 °F79 %29.83 in15.0 miENE (60°)9.2 mphMostly Cloudy
8:52 PM80.6 °F73.4 °F79 %29.84 in15.0 miENE (60°)6.9 mphMostly Cloudy
9:59 PM80.6 °F73.4 °F79 %29.85 in15.0 miNE (50°)8.1 mphMostly Cloudy
10:00 PM80.0 °F73.0 °F74 %29.88 in14.0 miNE (50°)5.8 mphScattered Clouds
10:57 PM80.6 °F73.4 °F79 %29.86 in15.0 miNE (50°)6.9 mphMostly Cloudy
11:58 PM78.8 °F73.4 °F83 %29.84 in15.0 miNNE (30°)5.8 mphMostly Cloudy
Hourly data recorded from PTRO, located miles away from Koror - Terminal Port, Palau







STORIES FROM OUR PARTNERS